Weather in Stancionnyj-Polevskoj

Russia / Sverdlovsk Oblast     56°26′27″N   60°18′57″E
temp.,
°C
wind,
m/s
gust,
m/s
humid.,
%
clouds,
%
prec.,
mm/h
press.,
hPa
HPBL,
m
19 april, mon
mon1923:00−3ene49480 0.0 1032624
02:00−5ene38490 0.0 1033581
05:00−5ene25570 0.0 1035240
08:00−4e46410 0.0 1035948
11:00−1e34325 0.0 10351607
14:00+2ene34275 0.0 10341900
17:00+2ne34295 0.0 10331922
20:00−2e01455 0.0 103410
20 april, tue
tue2023:00−4nw11535 0.0 103510
02:00−4wsw11571 0.0 103510
05:00−4w21585 0.0 103518
08:000wnw37435 0.0 1034389
11:00+4wnw453434 0.0 10331313
14:00+7nw46285 0.0 10311541
17:00+7nw56330 0.0 10301546
20:00+2wnw36580 0.0 1030119
21 april, wed
wed2123:00−1wnw27720 0.0 1031120
02:00−1w25750 0.0 103289
05:00−2w23760 0.0 103249
08:00+3nw25550 0.0 1032289
11:00+8nw33420 0.0 10321073
14:00+11n22370 0.0 10311352
17:00+11ese21361 0.0 10301446
20:00+7se225936 0.0 103223
22 april, thu
thu2223:00+3sse23725 0.0 103352
02:00+2sse227525 0.0 103324
05:00+1sse2274100 0.0 103428
08:00+6s255570 0.0 1034200
11:00+11sse4535100 0.0 10331182
14:00+13s5631100 0.0 10321652
17:00+12s4737100 0.0 10321430
20:00+8s2655100 0.0 1033133
23 april, fri
fri2323:00+5s2865100 0.0 1033179
02:00+4ssw2765100 0.0 1033119
05:00+5sw2364100 0.0 103351
08:00+7s1359100 0.0 1033125
11:00+11s2441100 0.0 10321146
14:00+13s3635100 0.0 10312007
17:00+13s4636100 0.0 10302177
20:00+8wsw246998 0.0 103265